weather.gov     
National Weather Service

Regional Weather Roundup
NWS Homepage
This page is being discontinued on March 12, 2014.
The same data is available at this site. Please update your bookmarks.
Thank you, and we apologize for the inconvenience.
Please send an email to SR-SRH.Webmaster@noaa.gov with any concerns.


Current Version
Previous Version:    01  02  03  04  05  06  07  08  09  10  11  12  13  14  15  16  17  18  19  20  21  22  23  24  25  26  
[Printable]
511
ASUS44 KLCH 210810
RWRLCH
RWRLCH
REGIONAL WEATHER ROUNDUP
NATIONAL WEATHER SERVICE LAKE CHARLES LA
300 AM CDT TUE OCT 21 2014

Note: "fair" indicates few or no clouds below 12,000 feet with no
significant weather and/or obstructions to visibility.


ACROSS SOUTHEAST TEXAS

CITY           SKY/WX    TMP DP  RH WIND       PRES   REMARKS
BEAUMONT       PTCLDY    62  57  83 NE6       30.01S
BEAUMONT CITY    N/A     54  54 100 CALM      30.02S
ORANGE         MOSUNNY   57  57 100 CALM      30.03S
JASPER         CLEAR     51  51  97 CALM      30.04F
$$

ACROSS CENTRAL LOUISIANA

CITY           SKY/WX    TMP DP  RH WIND       PRES   REMARKS
LEESVILLE      CLEAR     58  54  88 SE2       30.02S
FULLERTON        N/A     57  53  86 CALM      30.00F
ALEXANDRIA INT CLEAR     55  54  96 CALM      30.01S
ESLER FIELD    CLEAR     53  51  93 CALM      30.03S
DERIDDER         N/A     55  53  94 CALM      30.04F
OAKDALE        SUNNY     51  50  95 CALM      30.02S
OPELOUSAS        N/A     53  52  97 CALM      30.01F
$$

ACROSS SOUTHWEST AND SOUTH CENTRAL LOUISIANA

CITY           SKY/WX    TMP DP  RH WIND       PRES   REMARKS
SULPHUR        SUNNY     58  56  95 CALM      30.02S
LAKE CHARLES   CLEAR     58  54  86 E3        30.01F
CHENNAULT INT  CLEAR     58  55  87 CALM      30.02S
CAMERON PHI      N/A     61  57  88 NE6       30.04S
DEQUINCY         N/A     53  52  95 CALM      30.02S
JENNINGS         N/A     57  55  90 CALM      30.01S
LAFAYETTE      CLEAR     58  55  90 CALM      30.01S
NEW IBERIA     CLEAR     61  54  77 E6        30.02S
ABBEVILLE        N/A     53  53  98 CALM      30.01S
PATTERSON      NOT AVBL
SALT POINT       N/A     62  58  86 CALM      29.99F
$$

SELECTED SITES ACROSS THE REGION

CITY           SKY/WX    TMP DP  RH WIND       PRES   REMARKS
HOUSTON BUSH   MOCLDY    60  56  86 NE3       30.01S
HOUSTON HOBBY  MOCLDY    64  59  83 CALM      30.00S
GALVESTON      CLEAR     69  64  84 NE10      30.00F
COLLEGE STAT   PTCLDY    62  58  86 NE3       30.02F
CONROE         PTCLDY    54  53  97 N3        30.02F
HUNTSVILLE     PTCLDY    55  53  93 CALM      30.03S
LUFKIN         CLEAR     56  51  84 CALM      30.03S
SHREVEPORT     CLEAR     56  54  93 CALM      30.03S
MONROE         FOG       56  55  97 CALM      30.05R VSB 3/4
NATCHEZ MS     CLEAR     52  48  87 CALM      30.03S
BATON ROUGE    CLEAR     57  53  86 NE3       30.01F
N.O. INTL ARPT CLEAR     60  54  80 CALM      30.00S
SLIDELL        CLEAR     52  49  89 N6        30.00F
$$

MARINE REPORTS

STATION/POSITION TIME  TEMP    WIND        PRES    VSBY  WAVE
                       AIR SEA DIR/SP/G                  HT/PER
                 (UTC) (F)     (DEG/KT/KT) (MB)    (MI)  (FT/S)
BUOY 30 S HIGH I 0800   75 78   60/ 12/ 14 1015.0F         3/ 5
SEA RIM ST PARK  0800   63      50/  6/  7 1016.7S
PORT ARTHUR      0800      76   50/  1/  3 1016.2S
SABINE PASS N    0800   65 74   50/  6/  7 1016.2F
TEXAS POINT      0800   64 75   40/  7/  8 1016.2F
CALCASIEU PASS   0800   63 76   60/  8/  9   N/A
LK CHARLES BEACH 0800   62 76              1016.2S
MARSH ISLAND     NOT AVBL
FRESH WATER LOCK 0800   63 76   20/  5/  6 1015.8S
AMERADA PASS     0800   63 72   60/  2/  4 1015.7F
$$




U.S. Dept. of Commerce
NOAA National Weather Service
1325 East West Highway
Silver Spring, MD 20910
E-mail: w-nws.webmaster@noaa.gov
Page last modified: May 16, 2007
NATIONAL WEATHER SERVICE: for Safety, for Work, for Fun - FOR LIFE